Fort Campbell, KY

6:57 PM CDT on May 24, 2018 (GMT -0500)
Campbell Army Air Field

Weather History for KHOP - November, 2013

Change the Weather History Date:

Friday, November 29, 2013

  Actual Average Record
Temperature  
Mean Temperature 35 °F -  
Max Temperature 48 °F 53 °F 73 °F (2006)
Min Temperature 22 °F 34 °F 22 °F (2013)
Degree Days  
Heating Degree Days 30    
Moisture  
Dew Point 24 °F    
Average Humidity 64    
Maximum Humidity 93    
Minimum Humidity 39    
Precipitation  
Precipitation 0.00 in - - ()
Sea Level Pressure  
Sea Level Pressure 30.54 in    
Wind  
Wind Speed 2 mph (East)    
Max Wind Speed 6 mph    
Max Gust Speed -    
Visibility 10 miles    
Events      
Averages and records for this station are not official NWS values.
T = Trace of Precipitation, MM = Missing Value Source: NWS Daily Summary

Daily Weather History Graph

Daily Weather History Graph

Search for Another Location

Airport or City:

Astronomy

Nov. 29, 2013 Rise Set
Actual Time 6:42 AM CST 4:34 PM CST
Civil Twilight 6:13 AM CST 5:02 PM CST
Nautical Twilight 5:41 AM CST 5:34 PM CST
Astronomical Twilight 5:10 AM CST 6:05 PM CST
Moon 2:52 AM CST (11/29) 2:14 PM CST (11/29)
Length of Visible Light 10h 49m
Length of Day
9h 52m
Waning Crescent, 14% of the Moon is Illuminated
Nov 29
Waning Crescent
Dec 2
New
Dec 9
First Quarter
Dec 17
Full
Dec 25
Last Quarter

Hourly Weather History & Observations

Time (CST) Temp. Windchill Dew Point Humidity Pressure Visibility Wind Dir Wind Speed Gust Speed Precip Events Conditions
12:58 AM 26.1 °F - 18.0 °F 71% 30.51 in 10.0 mi Calm Calm - N/A   Clear
1:58 AM 25.5 °F - 17.6 °F 72% 30.52 in 10.0 mi Calm Calm - N/A   Clear
2:58 AM 25.7 °F - 20.1 °F 79% 30.53 in 10.0 mi East 2.3 mph - N/A   Clear
3:58 AM 23.9 °F - 20.3 °F 86% 30.53 in 10.0 mi East 2.3 mph - N/A   Clear
4:58 AM 25.0 °F - 20.5 °F 83% 30.56 in 10.0 mi Calm Calm - N/A   Clear
5:58 AM 23.9 °F - 21.6 °F 91% 30.58 in 10.0 mi ENE 2.3 mph - N/A   Clear
6:58 AM 22.5 °F - 20.8 °F 93% 30.59 in 10.0 mi ENE 2.3 mph - N/A   Clear
7:58 AM 26.8 °F - 24.4 °F 91% 30.60 in 10.0 mi ESE 2.3 mph - N/A   Clear
8:58 AM 32.4 °F - 25.9 °F 77% 30.61 in 10.0 mi East 2.3 mph - N/A   Clear
9:58 AM 39.6 °F 37.4 °F 25.9 °F 58% 30.61 in 10.0 mi East 3.5 mph - N/A   Clear
10:58 AM 43.2 °F 39.7 °F 25.5 °F 50% 30.59 in 10.0 mi East 5.8 mph - N/A   Clear
11:58 AM 46.4 °F 45.2 °F 25.9 °F 45% 30.56 in 10.0 mi ESE 3.5 mph - N/A   Clear
12:58 PM 47.7 °F - 24.4 °F 40% 30.54 in 10.0 mi ESE 4.6 mph - N/A   Clear
1:58 PM 48.6 °F - 24.6 °F 39% 30.53 in 10.0 mi ENE 5.8 mph - N/A   Clear
2:58 PM 48.6 °F - 24.3 °F 39% 30.53 in 10.0 mi Variable 3.5 mph - N/A   Clear
3:58 PM 47.5 °F - 23.9 °F 40% 30.53 in 10.0 mi East 3.5 mph - N/A   Clear
4:58 PM 44.8 °F 43.3 °F 25.9 °F 48% 30.51 in 10.0 mi ENE 3.5 mph - N/A   Clear
5:58 PM 41.0 °F 38.0 °F 25.5 °F 54% 30.51 in 10.0 mi East 4.6 mph - N/A   Clear
6:58 PM 39.0 °F 35.7 °F 25.7 °F 59% 30.51 in 10.0 mi ESE 4.6 mph - N/A   Clear
7:58 PM 36.9 °F 32.2 °F 25.5 °F 64% 30.50 in 10.0 mi East 5.8 mph - N/A   Clear
8:58 PM 36.0 °F 33.3 °F 25.2 °F 65% 30.49 in 10.0 mi East 3.5 mph - N/A   Clear
9:58 PM 36.5 °F 31.8 °F 24.4 °F 62% 30.48 in 10.0 mi East 5.8 mph - N/A   Clear
10:58 PM 34.9 °F - 24.1 °F 65% 30.48 in 10.0 mi ESE 2.3 mph - N/A   Clear
11:58 PM 32.5 °F - 24.8 °F 73% 30.47 in 10.0 mi Calm Calm - N/A   Clear